Showing default

DMC 3-FM1, 40715

Orbit data source: Space-Track

DMC 3-FM1, 40715 is a payload satellite owned by DMCii (UK) in SSO that was launched on Fri, 10 Jul 2015 UTC via a PSLV-XL launch vehicle from the Sirharikota (SRI). Payload-class satellites include a variety of spacecraft equipped with specific instruments for various scientific and technological missions. These include communications satellites like Starlink; space stations such as the ISS; scientific satellites like the Hubble; Earth observation satellites from companies like Planet Labs, Umbra, and HawkEye 360; GPS; miniature CubeSats for education and research; and military/defense satellites.

Loading next visibility...
Identifier
40715, 2015-032A
Orbit
SSO
Last TLE update
6 hours ago
Origin
Manufacturer
SSTL (Astrium)
Mission
Operational Commercial Imaging
Bus & Motor
SSTL-300S1, Unknown motor
Mass
447 kg wet, 435 kg dry
Launch date (UTC)
2015-07-10 (10 years ago)
Launch vehicle
PSLV-XL
Launch site
Sirharikota (SRI)
Object type
Payload
Rocket body
Debris
Shape & HBR
Hept Cyl + Cyl, 2.5 m
Radar Cross Section
2.356 m², Large (>1 m²)

Expand to show TLE details & history

TLE from 6 hours ago
0 DMC 3-FM1
1 40715U 15032A   25132.59337846  .00000721  00000-0  90572-4 0  9993
2 40715  97.7026   7.2531 0004238 300.9911  59.0887 14.85034381530448
Epoch: 2025-05-12T14:14Z
Definitive object data (Epoch: 2025-05-12T14:14:27.898Z)
Latitude
-0.00012°
Longitude
-76.96736°
Altitude
614.991 km
Speed
7.552 km/s
True Right ascension
00h 29m 00s
True Declination
0° 00' 00"
Sunlit
Object was in daylight at TLE epoch
Visualization TLE readout
Latitude
-7.02942°
Longitude
-75.75769°
Altitude
615.906 km
Speed
7.552 km/s
Apparent Right ascension
21h 46m 43s
Apparent Declination
-35° 56' 01"
Sunlit
Object is in daylight
Visualization observer readout
Local Sidereal Time
05:03:40
Azimuth
249.955° W
Elevation
-35.533°
Doppler factor
1
Orbital elements
Apogee altitude
613.465 km
Perigee altitude
607.542 km
Semi-major axis
6,988.64 km
Eccentricity
0.0004238
Inclination
97.7026°
RAAN
7.2531°
Arg. of periapsis
300.9911°
True anomaly
59.13038°
Mean anomaly
59.0887°
Eccentric anomaly
59.10954°
Mean motion
3.71496 °/min
BSTAR
0.000090572
Orbital period
96.91 mins
Loading maneuver chart data...
Loading SW <> Apogee altitude chart data...
Loading historical data...
Loading historical data...
Loading historical data...
Loading historical data...
Loading historical data...
Loading historical data...
Loading historical data...
Other satellites on launch #32 in the year 2015 (2015-07-10 UTC)

DMC 3-FM1 Visibility forecast

Observer location: undefined°, undefined°

Span
Click to sort rows by Start time (UTC) header in descending order
Start Az.
Max El. time (UTC)
Max El. Az.
Max El.
End time (UTC)
End Az.
6 mins2025-05-13 03:45:40.438Z42.061° NE2025-05-13 03:48:40.438Z95.814° ESE25.005°2025-05-13 03:51:40.438Z149.761° SSE
5 mins2025-05-13 05:22:40.438Z327.634° NNW2025-05-13 05:24:40.438Z288.422° WNW22.122°2025-05-13 05:27:40.438Z240.399° WSW
5 mins2025-05-13 14:39:40.438Z101.475° ESE2025-05-13 14:41:40.438Z66.863° ENE18.901°2025-05-13 14:44:40.438Z21.229° NNE
6 mins2025-05-13 16:14:40.438Z206.161° SW2025-05-13 16:17:40.438Z270.955° WNW28.885°2025-05-13 16:20:40.438Z324.124° NNW
|